Retour au catalogue

FENGYUN 1C DEB

ActifPO
NORAD 29794·DEBRIS·🇨🇳 China

Lancé May 10, 1999 depuis Taiyuan Satellite Launch Center

Loading…

Prochains Passages (prochaines 24 heures)

TLE

FraisSource: Space-Track

Époque: Sep 14, 2026, 21:05 UTC

1 29794U 99025CL  26257.87877854  .00000555  00000-0  30385-3 0  9999
2 29794  98.2334  37.5300 0154639 327.5047 186.3948 14.09631350  7262

Suivez FENGYUN 1C DEB en temps réel avec AllMySat

Download on the App Store